Regional Weather Roundup
Issued by NWS

Home | Current Version | Previous Version | Graphics & Text | Print | Product List | Glossary On
Versions: 1 2 3 4 5 6 7 8 9 10 11 12 13 14 15 16 17 18 19 20 21 22 23 24 25 26 27 28 29 30 31 32 33 34 35 36 37 38 39 40 41 42 43 44 45 46 47 48 49 50
081
ASUS45 KTFX 220410
RWRMT
MONTANA REGIONAL WEATHER ROUNDUP
NATIONAL WEATHER SERVICE GREAT FALLS MT
1000 PM MDT WED JUN 21 2017

NOTE: "FAIR" INDICATES FEW OR NO CLOUDS BELOW 12000 FEET WITH NO
SIGNIFICANT WEATHER AND/OR OBSTRUCTIONS TO VISIBILITY.

MTZ001>007-043-220500-
WEST OF THE DIVIDE

CITY           SKY/WX    TMP DP  RH WIND       PRES   REMARKS
KALISPELL      PTCLDY    64  31  28 W9        29.96S
MISSOULA       CLEAR     59  32  36 W9        30.02R
BUTTE          CLEAR     63  26  24 NW7       30.06R
MULLAN PASS    CLEAR     50  23  34 W10       30.14S
ANACONDA         N/A     63  27  25 SW8       30.04R
DEER LODGE       N/A     59  28  31 NW10      30.05R
EUREKA           N/A     63  28  27 MISG      30.00R
HAMILTON         N/A     68  34  28 N3        30.04R
LIBBY            N/A     66  30  26 W3        29.98R
$$

MTZ008-052>055-220500-
SOUTHWEST MONTANA

CITY           SKY/WX    TMP DP  RH WIND       PRES   REMARKS
BOZEMAN        CLEAR     63  31  30 N8        29.95R
DILLON         CLEAR     61  35  37 W9        30.00R
W YELLOWSTONE  CLEAR     66  30  26 W7        30.05R
ENNIS          CLEAR     66  32  28 W9        30.05R
THREE FORKS      N/A     70  28  21 NW10      29.96R
$$

MTZ009-010-012-014-046-048-049-054-220500-
EAST SLOPES AND CENTRAL MONTANA

CITY           SKY/WX    TMP DP  RH WIND       PRES   REMARKS
CUT BANK       CLOUDY    59  32  36 NW16      29.95R
GREAT FALLS    CLEAR     60  27  28 NW14      29.93R
MALMSTROM AFB  CLEAR     65  26  23 NW10      29.93R
HELENA         CLEAR     69  23  17 NW24G30   29.96R
CHOTEAU          N/A     59  25  27 W13G20    29.98R
$$

MTZ011-013-016-021-045-047-050-051-220500-
NORTH CENTRAL MONTANA

CITY           SKY/WX    TMP DP  RH WIND       PRES   REMARKS
HAVRE          CLOUDY    62  40  44 NE6       29.89R
LEWISTOWN      CLEAR     64  27  24 NW13G21   29.91R
N BAR RANCH      N/A     59  30  33 W9        29.93R
CHINOOK          N/A     59  43  55 N12G18    29.90R
FORT BENTON      N/A    N/A N/A N/A MISG      29.90R
$$

MTZ017>020-022>027-061-062-220500-
NORTHEAST MONTANA

CITY           SKY/WX    TMP DP  RH WIND       PRES   REMARKS
GLASGOW        LGT RAIN  55  46  71 N20G32    29.82R
JORDAN           N/A     67  39  35 N18       29.81R
SIDNEY         MOCLDY    69  40  34 N8        29.79R
WOLF POINT     CLOUDY    62  45  53 N29G37    29.80R
MALTA          MOCLDY    57  46  67 E5        29.86R
PLENTYWOOD       N/A     54  48  82 NW23G35   29.89R
$$

MTZ028>42-056>058-220500-
SOUTHCENTRAL AND SOUTHEAST MONTANA

CITY           SKY/WX    TMP DP  RH WIND       PRES   REMARKS
BAKER          CLEAR     60  37  42 E5        29.79F
BILLINGS       PTCLDY    72  34  24 N13       29.84R
LIVINGSTON     CLEAR     68  33  27 W8        29.93R
MILES CITY     PTCLDY    70  36  28 NE10      29.77R
BIG TIMBER     CLEAR     64  30  27 SW9       29.93R
FORSYTH          N/A     72  39  30 NE3       29.78R
ROUNDUP          N/A     72  27  18 NW14      29.77R
$$

REGIONAL REPORTS...DAKOTAS

CITY           SKY/WX    TMP DP  RH WIND       PRES   REMARKS
WILLISTON      CLOUDY    66  41  40 NW7       29.82R
MINOT          CLEAR     60  40  47 W3        29.74S
DICKINSON      CLEAR     55  38  52 E6        29.77S
BEACH            N/A     57  41  54 S5        29.81S
CROSBY           N/A     61  41  48 W9        29.79R
TIOGA            N/A     59  41  51 CALM      29.80R
WATFORD CITY   MOCLDY    59  45  58 N5        29.78R
BISMARCK       PTCLDY    68  41  37 N7        29.77S
GRAND FORKS    CLEAR     65  51  60 W6        29.68R
FARGO          PTCLDY    70  55  59 W7        29.70R
BUFFALO SD       N/A     66  49  54 E14       29.74R
RAPID CITY     CLEAR     72  48  42 NE13      29.78R
$$

REGIONAL REPORTS...WYOMING/IDAHO/WASHINGTON

CITY           SKY/WX    TMP DP  RH WIND       PRES   REMARKS
GILLETTE       CLOUDY    71  47  42 N7        29.84R
SHERIDAN       CLEAR     68  53  58 W8        29.85R
BUFFALO WY     CLEAR     66  53  63 W12       29.91R
CODY           CLOUDY    70  49  47 NW3       29.92R
YELLOWSTONE LA   N/A     62  40  44 VRB7G18   30.15R
IDAHO FALLS    CLEAR     70  42  36 SW17      29.93R
SALMON         CLEAR     73  30  20 N15G29    29.98R
BOISE          CLEAR     74  37  26 NW14      29.97R
SPOKANE        PTCLDY    69  30  23 W8        30.02S
$$

REGIONAL REPORTS...ALBERTA

CITY           SKY/WX    TMP DP  RH WIND       PRES   REMARKS
EDMONTON       PTCLDY    54  37  54 NW16G30   29.87R
LETHBRIDGE     PTCLDY    50  43  76 S3        29.96R
MEDICINE HAT   CLEAR     52  45  76 W3        29.90R
WATERTON GATE    N/A     55  23  28 W12G24      N/A
MILK RIVER       N/A     48  45  87 NE9         N/A
ONEFOUR          N/A     50  39  66 N9          N/A
$$

REGIONAL REPORTS...SASKATCHEWAN

CITY           SKY/WX    TMP DP  RH WIND       PRES   REMARKS
SWIFT CURRENT  CLOUDY    54  41  62 NW6       29.81R
REGINA         PTCLDY    54  36  50 W10       29.75R
SASKATOON      MOCLDY    57  37  47 W14       29.68R
CYPRESS HILLS    N/A     45  37  76 N6          N/A
ROCKGLEN         N/A     50  46  87 SW9         N/A
$$




USA.gov is the U.S. government's official web portal to all federal, state and local government web resources and services.